Total_Precipitation_Accumulation
0.00 0.00 0.00 0.00 0.01 0.07 0.09 0.08 0.36 1.12 0.77 0.64 0.92 0.54 0.15 0.29 0.30 0.27 0.27 0.08 0.01 0.02 0.03 0.00 0.00 0.00 0.00 0.00 0.00 0.03 0.05 0.04 0.04 0.01 0.00 0.01 0.02 0.02 0.01 0.02 0.04 0.05 0.04 0.02
0.00 0.00 0.00 0.01 0.03 0.01 0.02 0.07 0.23 1.07 1.65 1.13 1.11 0.76 0.38 0.29 0.32 0.19 0.32 0.26 0.10 0.07 0.05 0.02 0.00 0.00 0.00 0.00 0.01 0.04 0.23 0.09 0.04 0.03 0.01 0.02 0.01 0.02 0.01 0.01 0.01 0.02 0.04 0.03
0.00 0.00 0.00 0.02 0.03 0.00 0.00 0.01 0.13 0.69 0.69 0.87 0.94 0.94 0.60 0.52 0.47 0.26 0.21 0.28 0.18 0.19 0.05 0.03 0.00 0.00 0.00 0.00 0.00 0.02 0.11 0.15 0.05 0.05 0.01 0.03 0.18 0.18 0.18 0.06 0.02 0.04 0.01 0.01
0.00 0.00 0.00 0.00 0.00 0.00 0.01 0.01 0.09 0.44 0.56 1.55 0.85 1.01 0.58 0.36 0.30 0.17 0.09 0.17 0.20 0.35 0.10 0.07 0.02 0.01 0.01 0.00 0.00 0.00 0.11 0.16 0.08 0.08 0.07 0.08 0.08 0.20 0.20 0.08 0.08 0.04 0.01 0.05
0.00 0.00 0.00 0.00 0.00 0.00 0.00 0.00 0.00 0.33 0.19 0.58 0.57 0.94 0.80 0.33 0.14 0.04 0.07 0.13 0.16 0.10 0.08 0.09 0.14 0.05 0.02 0.00 0.00 0.00 0.07 0.20 0.15 0.25 0.25 0.09 0.12 0.11 0.14 0.08 0.12 0.11 0.07 0.03
0.00 0.00 0.00 0.00 0.00 0.00 0.00 0.01 0.04 0.07 0.09 0.13 0.24 0.60 0.31 0.12 0.01 0.01 0.09 0.23 0.27 0.08 0.02 0.08 0.16 0.11 0.10 0.04 0.00 0.00 0.01 0.13 0.08 0.16 0.32 0.52 0.43 0.21 0.23 0.17 0.14 0.05 0.03 0.01
0.00 0.00 0.00 0.00 0.00 0.00 0.00 0.01 0.04 0.07 0.04 0.02 0.01 0.13 0.04 0.14 0.12 0.03 0.02 0.18 0.26 0.18 0.01 0.02 0.11 0.40 0.11 0.03 0.10 0.01 0.00 0.02 0.03 0.09 0.14 0.35 0.46 0.37 0.31 0.17 0.10 0.09 0.02 0.02
0.00 0.00 0.00 0.00 0.00 0.00 0.00 0.00 0.00 0.01 0.01 0.00 0.04 0.12 0.12 0.03 0.01 0.01 0.08 0.07 0.24 0.25 0.07 0.06 0.03 0.33 0.34 0.11 0.16 0.07 0.00 0.00 0.01 0.05 0.13 0.22 0.34 0.25 0.24 0.11 0.08 0.03 0.05 0.11
0.00 0.00 0.00 0.00 0.00 0.00 0.00 0.00 0.00 0.00 0.01 0.00 0.04 0.19 0.19 0.03 0.01 0.08 0.09 0.05 0.09 0.28 0.28 0.21 0.17 0.08 0.13 0.12 0.21 0.08 0.04 0.00 0.01 0.02 0.13 0.21 0.19 0.29 0.33 0.31 0.16 0.13 0.05 0.09
0.00 0.00 0.00 0.00 0.00 0.00 0.00 0.00 0.00 0.00 0.00 0.00 0.04 0.13 0.22 0.27 0.36 0.30 0.11 0.08 0.02 0.09 0.31 0.41 0.44 0.27 0.13 0.16 0.05 0.14 0.12 0.05 0.03 0.06 0.05 0.17 0.12 0.16 0.22 0.25 0.22 0.24 0.19 0.12
0.00 0.00 0.00 0.00 0.00 0.00 0.00 0.00 0.00 0.00 0.00 0.00 0.02 0.07 0.09 0.24 0.21 0.33 0.24 0.12 0.14 0.10 0.32 0.45 0.62 0.57 0.20 0.39 0.35 0.36 0.46 0.19 0.03 0.08 0.07 0.15 0.24 0.15 0.17 0.24 0.43 0.36 0.24 0.14
0.00 0.00 0.00 0.00 0.00 0.00 0.00 0.00 0.00 0.00 0.00 0.00 0.00 0.04 0.02 0.31 0.45 0.43 0.22 0.14 0.11 0.11 0.17 0.40 0.60 0.81 0.42 0.77 1.45 0.93 0.61 0.48 0.24 0.11 0.04 0.08 0.12 0.16 0.17 0.18 0.25 0.28 0.50 0.31
0.00 0.00 0.00 0.01 0.00 0.00 0.00 0.00 0.00 0.00 0.00 0.00 0.00 0.01 0.03 0.03 0.04 0.10 0.08 0.04 0.07 0.17 0.24 0.24 0.56 1.01 0.71 0.82 2.21 2.54 1.25 0.55 0.50 0.18 0.10 0.05 0.04 0.06 0.08 0.15 0.18 0.19 0.32 0.39
0.00 0.00 0.00 0.03 0.01 0.00 0.00 0.00 0.00 0.00 0.00 0.00 0.00 0.03 0.09 0.03 0.05 0.07 0.12 0.08 0.06 0.13 0.24 0.37 0.36 0.82 1.07 0.98 1.00 1.01 1.76 1.27 1.05 0.51 0.21 0.11 0.03 0.02 0.02 0.09 0.14 0.19 0.44 0.37
0.00 0.00 0.00 0.01 0.00 0.00 0.00 0.00 0.00 0.00 0.00 0.00 0.00 0.03 0.03 0.03 0.08 0.18 0.26 0.37 0.29 0.17 0.11 0.19 0.24 0.43 0.73 1.19 1.17 0.73 0.91 1.88 1.97 1.27 1.00 0.49 0.29 0.23 0.19 0.11 0.10 0.16 0.15 0.18
0.00 0.00 0.00 0.01 0.01 0.00 0.00 0.00 0.00 0.00 0.00 0.00 0.00 0.01 0.02 0.18 0.60 0.85 0.99 1.45 1.41 1.17 0.40 0.28 0.30 0.42 0.48 0.65 0.96 1.04 1.01 1.21 1.45 1.25 1.10 0.63 0.45 0.41 0.39 0.30 0.20 0.16 0.17 0.26
0.00 0.00 0.00 0.00 0.01 0.00 0.00 0.00 0.00 0.00 0.00 0.00 0.00 0.02 0.00 0.06 0.30 0.18 0.13 0.27 0.46 0.70 1.52 1.21 0.78 0.64 0.57 0.45 0.65 0.96 1.44 1.35 1.44 1.09 0.77 0.70 0.65 0.62 0.57 0.49 0.37 0.37 0.46 0.45
0.00 0.00 0.00 0.00 0.01 0.02 0.00 0.00 0.00 0.01 0.05 0.03 0.02 0.03 0.13 0.18 0.24 0.10 0.07 0.18 0.28 0.23 0.71 1.76 1.49 0.94 0.94 0.81 0.71 0.68 1.01 0.88 0.79 1.07 1.01 1.03 0.73 0.67 0.67 0.70 0.66 0.71 0.68 0.64
0.00 0.00 0.00 0.00 0.00 0.01 0.03 0.01 0.00 0.02 0.06 0.07 0.06 0.05 0.21 0.69 0.42 0.16 0.09 0.05 0.05 0.15 0.23 0.31 0.78 0.97 1.96 1.22 0.69 0.55 0.56 0.41 0.24 0.30 0.50 0.64 0.54 0.52 0.47 0.54 0.51 0.57 0.57 0.51
0.00 0.00 0.00 0.00 0.00 0.03 0.03 0.02 0.00 0.00 0.03 0.04 0.09 0.10 0.08 0.41 0.44 0.39 0.15 0.09 0.09 0.10 0.11 0.09 0.12 0.16 0.30 0.30 0.21 0.29 0.31 0.32 0.14 0.07 0.09 0.16 0.26 0.41 0.42 0.48 0.57 0.58 0.62 0.58
0.00 0.00 0.00 0.00 0.00 0.01 0.01 0.00 0.00 0.01 0.05 0.06 0.17 0.16 0.16 0.17 0.32 0.50 0.33 0.13 0.14 0.06 0.03 0.05 0.04 0.06 0.09 0.14 0.16 0.11 0.13 0.11 0.02 0.03 0.02 0.08 0.08 0.22 0.22 0.40 0.60 0.55 0.50 0.51
0.00 0.00 0.00 0.00 0.01 0.04 0.01 0.00 0.00 0.04 0.02 0.11 0.15 0.17 0.30 0.38 0.20 0.31 0.24 0.16 0.05 0.03 0.02 0.01 0.01 0.05 0.05 0.10 0.15 0.14 0.12 0.08 0.02 0.02 0.01 0.02 0.02 0.15 0.05 0.07 0.20 0.38 0.46 0.55
0.00 0.00 0.00 0.00 0.02 0.01 0.00 0.00 0.02 0.01 0.01 0.07 0.18 0.22 0.34 0.37 0.28 0.31 0.28 0.16 0.06 0.09 0.06 0.03 0.02 0.03 0.05 0.06 0.09 0.12 0.14 0.10 0.04 0.01 0.00 0.00 0.00 0.01 0.01 0.03 0.02 0.03 0.07 0.15
0.00 0.01 0.01 0.01 0.00 0.02 0.04 0.08 0.02 0.00 0.00 0.04 0.16 0.23 0.36 0.41 0.23 0.25 0.25 0.20 0.18 0.06 0.01 0.00 0.00 0.01 0.02 0.02 0.04 0.05 0.04 0.07 0.05 0.02 0.00 0.00 0.00 0.00 0.00 0.00 0.00 0.00 0.00 0.01
0.00 0.13 0.04 0.00 0.01 0.10 0.06 0.16 0.36 0.15 0.00 0.01 0.09 0.17 0.21 0.20 0.09 0.15 0.19 0.15 0.08 0.07 0.03 0.01 0.01 0.01 0.01 0.01 0.01 0.01 0.02 0.01 0.02 0.01 0.01 0.00 0.00 0.00 0.00 0.00 0.00 0.00 0.00 0.00
0.00 0.00 0.00 0.03 0.09 0.14 0.06 0.01 0.03 0.06 0.02 0.01 0.04 0.06 0.10 0.15 0.06 0.12 0.24 0.47 0.31 0.09 0.03 0.01 0.01 0.00 0.00 0.00 0.00 0.00 0.00 0.01 0.02 0.01 0.01 0.00 0.00 0.00 0.00 0.00 0.00 0.00 0.00 0.00